Time,TemperatureF,DewpointF,PressureIn,WindDirection,WindDirectionDegrees,WindSpeedMPH,WindSpeedGustMPH,Humidity,HourlyPrecipIn,Conditions,Clouds,dailyrainin,SoftwareType,DateUTC
2015-01-29 00:03:00,66.0,61.7,29.93,NNW,341,4.0,5.0,86,0.00,,,0.00,VWS V15.00,2015-01-29 10:03:00,
2015-01-29 00:08:00,65.9,61.6,29.93,NW,326,5.0,8.0,86,0.00,,,0.00,VWS V15.00,2015-01-29 10:08:00,
2015-01-29 00:13:00,66.0,61.7,29.92,NNW,327,6.0,6.0,86,0.00,,,0.00,VWS V15.00,2015-01-29 10:13:00,
2015-01-29 00:18:00,65.9,61.6,29.92,North,350,6.0,6.0,86,0.00,,,0.00,VWS V15.00,2015-01-29 10:18:00,
2015-01-29 00:23:00,65.8,61.5,29.92,NNW,341,5.0,5.0,86,0.00,,,0.00,VWS V15.00,2015-01-29 10:23:00,
2015-01-29 00:28:00,65.6,61.6,29.92,North,358,4.0,5.0,87,0.00,,,0.00,VWS V15.00,2015-01-29 10:28:00,
2015-01-29 00:33:00,65.4,61.4,29.92,NNW,341,5.0,5.0,87,0.00,,,0.00,VWS V15.00,2015-01-29 10:33:00,
2015-01-29 00:38:00,65.2,61.2,29.92,North,359,6.0,6.0,87,0.00,,,0.00,VWS V15.00,2015-01-29 10:38:00,
2015-01-29 00:43:00,65.0,61.4,29.92,NNW,348,5.0,5.0,88,0.00,,,0.00,VWS V15.00,2015-01-29 10:43:00,
2015-01-29 00:48:00,64.9,61.3,29.92,NNW,337,5.0,5.0,88,0.00,,,0.00,VWS V15.00,2015-01-29 10:48:00,
2015-01-29 00:54:00,65.1,61.5,29.92,NNW,346,5.0,6.0,88,0.00,,,0.00,VWS V15.00,2015-01-29 10:54:00,
2015-01-29 00:59:00,65.3,61.3,29.92,NW,324,4.0,5.0,87,0.00,,,0.00,VWS V15.00,2015-01-29 10:59:00,
2015-01-29 01:04:00,65.7,61.4,29.91,NNW,330,7.0,7.0,86,0.00,,,0.00,VWS V15.00,2015-01-29 11:04:00,
2015-01-29 01:09:00,65.6,61.3,29.92,North,8,6.0,6.0,86,0.00,,,0.00,VWS V15.00,2015-01-29 11:09:00,
2015-01-29 01:14:00,65.6,61.3,29.92,NW,318,7.0,7.0,86,0.00,,,0.00,VWS V15.00,2015-01-29 11:14:00,
2015-01-29 01:19:00,65.5,61.5,29.91,North,353,4.0,5.0,87,0.00,,,0.00,VWS V15.00,2015-01-29 11:19:00,
2015-01-29 01:24:00,65.3,61.3,29.91,NNW,331,6.0,7.0,87,0.00,,,0.00,VWS V15.00,2015-01-29 11:24:00,
2015-01-29 01:29:00,65.1,61.1,29.91,NNW,327,7.0,7.0,87,0.00,,,0.00,VWS V15.00,2015-01-29 11:29:00,
2015-01-29 01:34:00,64.9,61.3,29.91,NNW,331,4.0,4.0,88,0.00,,,0.00,VWS V15.00,2015-01-29 11:34:00,
2015-01-29 01:40:00,65.0,61.4,29.91,NNW,341,5.0,6.0,88,0.00,,,0.00,VWS V15.00,2015-01-29 11:40:00,
2015-01-29 01:45:00,65.2,61.2,29.90,NNW,346,4.0,5.0,87,0.00,,,0.00,VWS V15.00,2015-01-29 11:45:00,
2015-01-29 01:50:00,65.6,61.3,29.90,NW,322,6.0,7.0,86,0.00,,,0.00,VWS V15.00,2015-01-29 11:50:00,
2015-01-29 01:55:00,65.5,61.5,29.90,NNW,337,6.0,6.0,87,0.00,,,0.00,VWS V15.00,2015-01-29 11:55:00,
2015-01-29 02:00:00,65.5,61.5,29.90,NW,317,7.0,7.0,87,0.00,,,0.00,VWS V15.00,2015-01-29 12:00:00,
2015-01-29 02:05:00,65.6,61.6,29.90,North,349,7.0,7.0,87,0.00,,,0.00,VWS V15.00,2015-01-29 12:05:00,
2015-01-29 02:10:00,65.6,61.3,29.90,NNW,343,6.0,6.0,86,0.00,,,0.00,VWS V15.00,2015-01-29 12:10:00,
2015-01-29 02:15:00,65.5,61.2,29.89,NNW,342,5.0,6.0,86,0.00,,,0.00,VWS V15.00,2015-01-29 12:15:00,
2015-01-29 02:20:00,65.4,61.4,29.89,NNW,334,5.0,7.0,87,0.00,,,0.00,VWS V15.00,2015-01-29 12:20:00,
2015-01-29 02:25:00,65.4,61.4,29.89,North,355,7.0,7.0,87,0.00,,,0.00,VWS V15.00,2015-01-29 12:25:00,
2015-01-29 02:30:00,65.6,61.3,29.89,NNW,341,4.0,4.0,86,0.00,,,0.00,VWS V15.00,2015-01-29 12:30:00,
2015-01-29 02:35:00,65.5,61.2,29.89,North,5,5.0,6.0,86,0.00,,,0.00,VWS V15.00,2015-01-29 12:35:00,
2015-01-29 02:40:00,65.6,61.3,29.89,NNW,340,4.0,6.0,86,0.00,,,0.00,VWS V15.00,2015-01-29 12:40:00,
2015-01-29 02:45:00,65.6,61.3,29.89,NW,318,6.0,6.0,86,0.00,,,0.00,VWS V15.00,2015-01-29 12:45:00,
2015-01-29 02:50:00,65.8,61.5,29.89,NNW,332,7.0,7.0,86,0.00,,,0.00,VWS V15.00,2015-01-29 12:50:00,
2015-01-29 02:56:00,65.8,61.5,29.88,NNW,342,5.0,6.0,86,0.00,,,0.00,VWS V15.00,2015-01-29 12:56:00,
2015-01-29 03:01:00,65.8,61.8,29.89,NNW,336,6.0,6.0,87,0.00,,,0.00,VWS V15.00,2015-01-29 13:01:00,
2015-01-29 03:06:00,65.7,61.7,29.89,NNW,346,3.0,4.0,87,0.00,,,0.00,VWS V15.00,2015-01-29 13:06:00,
2015-01-29 03:11:00,65.7,61.4,29.89,NNW,342,5.0,6.0,86,0.00,,,0.00,VWS V15.00,2015-01-29 13:11:00,
2015-01-29 03:16:00,65.8,61.5,29.89,NNW,339,6.0,7.0,86,0.00,,,0.00,VWS V15.00,2015-01-29 13:16:00,
2015-01-29 03:21:00,65.7,61.4,29.88,NNW,346,5.0,6.0,86,0.00,,,0.00,VWS V15.00,2015-01-29 13:21:00,
2015-01-29 03:26:00,65.5,61.5,29.89,NNW,348,4.0,6.0,87,0.00,,,0.00,VWS V15.00,2015-01-29 13:26:00,
2015-01-29 03:31:00,65.3,61.0,29.89,NNW,336,6.0,6.0,86,0.00,,,0.00,VWS V15.00,2015-01-29 13:31:00,
2015-01-29 03:36:00,65.4,61.1,29.88,NNW,334,5.0,5.0,86,0.00,,,0.00,VWS V15.00,2015-01-29 13:36:00,
2015-01-29 03:41:00,65.3,60.7,29.88,North,2,6.0,6.0,85,0.00,,,0.00,VWS V15.00,2015-01-29 13:41:00,
2015-01-29 03:46:00,65.6,60.6,29.88,North,359,5.0,6.0,84,0.00,,,0.00,VWS V15.00,2015-01-29 13:46:00,
2015-01-29 03:52:00,65.5,60.5,29.88,NNW,341,6.0,6.0,84,0.00,,,0.00,VWS V15.00,2015-01-29 13:52:00,
2015-01-29 03:57:00,65.3,60.3,29.88,NNE,16,6.0,6.0,84,0.00,,,0.00,VWS V15.00,2015-01-29 13:57:00,
2015-01-29 04:02:00,65.3,60.3,29.88,NNW,336,5.0,6.0,84,0.00,,,0.00,VWS V15.00,2015-01-29 14:02:00,
2015-01-29 04:07:00,65.4,60.8,29.88,NNW,338,3.0,4.0,85,0.00,,,0.00,VWS V15.00,2015-01-29 14:07:00,
2015-01-29 04:12:00,65.5,60.5,29.88,NNW,341,4.0,6.0,84,0.00,,,0.00,VWS V15.00,2015-01-29 14:12:00,
2015-01-29 04:17:00,65.4,60.8,29.88,NNW,345,5.0,5.0,85,0.00,,,0.00,VWS V15.00,2015-01-29 14:17:00,
2015-01-29 04:23:00,65.0,60.4,29.88,North,2,4.0,5.0,85,0.00,,,0.00,VWS V15.00,2015-01-29 14:23:00,
2015-01-29 04:28:00,65.2,60.6,29.88,NNW,343,3.0,4.0,85,0.00,,,0.00,VWS V15.00,2015-01-29 14:28:00,
2015-01-29 04:33:00,65.0,60.4,29.89,NNW,329,4.0,5.0,85,0.00,,,0.00,VWS V15.00,2015-01-29 14:33:00,
2015-01-29 04:38:00,65.0,60.4,29.88,NW,324,6.0,6.0,85,0.00,,,0.00,VWS V15.00,2015-01-29 14:38:00,
2015-01-29 04:43:00,65.1,60.5,29.89,North,358,3.0,4.0,85,0.00,,,0.00,VWS V15.00,2015-01-29 14:43:00,
2015-01-29 04:48:00,65.2,60.2,29.89,North,357,3.0,3.0,84,0.00,,,0.00,VWS V15.00,2015-01-29 14:48:00,
2015-01-29 04:53:00,65.1,60.5,29.89,North,357,6.0,6.0,85,0.00,,,0.00,VWS V15.00,2015-01-29 14:53:00,
2015-01-29 04:58:00,65.5,60.5,29.89,NNW,343,5.0,5.0,84,0.00,,,0.00,VWS V15.00,2015-01-29 14:58:00,
2015-01-29 05:03:00,65.4,60.5,29.89,NNW,327,5.0,5.0,84,0.00,,,0.00,VWS V15.00,2015-01-29 15:03:00,
2015-01-29 05:09:00,65.4,60.5,29.89,NNW,340,6.0,6.0,84,0.00,,,0.00,VWS V15.00,2015-01-29 15:09:00,
2015-01-29 05:14:00,65.4,60.5,29.89,NW,321,5.0,6.0,84,0.00,,,0.00,VWS V15.00,2015-01-29 15:14:00,
2015-01-29 05:19:00,65.5,60.5,29.89,North,350,4.0,5.0,84,0.00,,,0.00,VWS V15.00,2015-01-29 15:19:00,
2015-01-29 05:24:00,65.2,60.2,29.89,NNW,341,3.0,4.0,84,0.00,,,0.00,VWS V15.00,2015-01-29 15:24:00,
2015-01-29 05:29:00,65.1,60.2,29.90,NNW,337,4.0,6.0,84,0.00,,,0.00,VWS V15.00,2015-01-29 15:29:00,
2015-01-29 05:34:00,65.0,60.4,29.90,NNW,342,7.0,8.0,85,0.00,,,0.00,VWS V15.00,2015-01-29 15:34:00,
2015-01-29 05:39:00,65.0,60.4,29.90,NNW,339,4.0,5.0,85,0.00,,,0.00,VWS V15.00,2015-01-29 15:39:00,
2015-01-29 05:44:00,65.1,60.5,29.90,NNW,348,3.0,3.0,85,0.00,,,0.00,VWS V15.00,2015-01-29 15:44:00,
2015-01-29 05:49:00,65.4,60.5,29.90,NNW,335,4.0,5.0,84,0.00,,,0.00,VWS V15.00,2015-01-29 15:49:00,
2015-01-29 05:54:00,65.4,60.5,29.90,NNW,331,4.0,5.0,84,0.00,,,0.00,VWS V15.00,2015-01-29 15:54:00,
2015-01-29 06:00:00,65.1,60.2,29.89,NNW,327,5.0,5.0,84,0.00,,,0.00,VWS V15.00,2015-01-29 16:00:00,
2015-01-29 06:05:00,65.1,60.2,29.89,North,349,4.0,5.0,84,0.00,,,0.00,VWS V15.00,2015-01-29 16:05:00,
2015-01-29 06:10:00,64.7,60.1,29.89,NNW,342,5.0,5.0,85,0.00,,,0.00,VWS V15.00,2015-01-29 16:10:00,
2015-01-29 06:15:00,64.8,60.2,29.90,North,355,2.0,3.0,85,0.00,,,0.00,VWS V15.00,2015-01-29 16:15:00,
2015-01-29 06:20:00,64.8,60.0,29.90,North,360,4.0,7.0,85,0.00,,,0.00,weatherlink.com 1.10,2015-01-29 16:20:00,
2015-01-29 06:25:00,65.0,60.4,29.90,North,1,4.0,4.0,85,0.00,,,0.00,VWS V15.00,2015-01-29 16:25:00,
2015-01-29 06:30:00,64.7,60.1,29.91,North,360,3.0,3.0,85,0.00,,,0.00,VWS V15.00,2015-01-29 16:30:00,
2015-01-29 06:35:00,64.2,59.9,29.91,NNW,341,5.0,5.0,86,0.00,,,0.00,VWS V15.00,2015-01-29 16:35:00,
2015-01-29 06:40:00,64.2,60.3,29.91,North,356,2.0,3.0,87,0.00,,,0.00,VWS V15.00,2015-01-29 16:40:00,
2015-01-29 06:45:00,64.5,60.2,29.91,North,349,5.0,5.0,86,0.00,,,0.00,VWS V15.00,2015-01-29 16:45:00,
2015-01-29 06:51:00,64.4,60.1,29.92,NNW,341,4.0,5.0,86,0.00,,,0.00,VWS V15.00,2015-01-29 16:51:00,
2015-01-29 06:56:00,64.5,60.2,29.92,NNW,344,4.0,4.0,86,0.00,,,0.00,VWS V15.00,2015-01-29 16:56:00,
2015-01-29 07:01:00,64.5,60.2,29.92,NNW,336,3.0,4.0,86,0.00,,,0.00,VWS V15.00,2015-01-29 17:01:00,
2015-01-29 07:06:00,64.6,60.3,29.92,NNW,343,3.0,6.0,86,0.00,,,0.00,VWS V15.00,2015-01-29 17:06:00,
2015-01-29 07:11:00,64.5,60.2,29.92,NNW,338,4.0,4.0,86,0.00,,,0.00,VWS V15.00,2015-01-29 17:11:00,
2015-01-29 07:16:00,64.6,60.3,29.92,NNW,335,4.0,4.0,86,0.00,,,0.00,VWS V15.00,2015-01-29 17:16:00,
2015-01-29 07:21:00,64.8,60.5,29.93,NNW,331,5.0,6.0,86,0.00,,,0.00,VWS V15.00,2015-01-29 17:21:00,
2015-01-29 07:26:00,65.0,60.4,29.93,NNW,342,6.0,6.0,85,0.00,,,0.00,VWS V15.00,2015-01-29 17:26:00,
2015-01-29 07:31:00,65.7,60.7,29.93,NNW,327,6.0,7.0,84,0.00,,,0.00,VWS V15.00,2015-01-29 17:31:00,
2015-01-29 07:36:00,66.1,61.1,29.93,NNW,334,4.0,4.0,84,0.00,,,0.00,VWS V15.00,2015-01-29 17:36:00,
2015-01-29 07:41:00,66.5,61.2,29.93,NNW,328,4.0,5.0,83,0.00,,,0.00,VWS V15.00,2015-01-29 17:41:00,
2015-01-29 07:43:00,66.6,61.3,29.93,North,352,6.0,6.0,83,0.00,,,0.00,VWS V15.00,2015-01-29 17:43:00,
2015-01-29 07:48:00,67.1,61.8,29.93,NNW,346,2.0,3.0,83,0.00,,,0.00,VWS V15.00,2015-01-29 17:48:00,
2015-01-29 07:53:00,67.3,62.0,29.93,North,351,3.0,4.0,83,0.00,,,0.00,VWS V15.00,2015-01-29 17:53:00,
2015-01-29 07:59:00,67.8,62.5,29.94,NNW,337,4.0,4.0,83,0.00,,,0.00,VWS V15.00,2015-01-29 17:59:00,
2015-01-29 08:03:00,68.3,62.9,29.94,NNW,342,2.0,2.0,83,0.00,,,0.00,VWS V15.00,2015-01-29 18:03:00,
2015-01-29 08:04:00,68.5,63.1,29.94,North,350,2.0,2.0,83,0.00,,,0.00,VWS V15.00,2015-01-29 18:04:00,
2015-01-29 08:09:00,69.0,63.3,29.94,NNW,342,1.0,1.0,82,0.00,,,0.00,VWS V15.00,2015-01-29 18:09:00,
2015-01-29 08:14:00,69.9,64.2,29.94,NNW,348,0.0,0.0,82,0.00,,,0.00,VWS V15.00,2015-01-29 18:14:00,
2015-01-29 08:19:00,71.5,64.3,29.94,NNW,348,0.0,0.0,78,0.00,,,0.00,VWS V15.00,2015-01-29 18:19:00,
2015-01-29 10:20:00,75.5,66.2,29.93,SW,225,8.0,17.0,73,0.00,,,0.00,VWS V15.00,2015-01-29 20:20:00,
2015-01-29 10:37:00,-999.0,-99.9,0.00,North,-999,-999.0,-999.0,-999,0.00,,,0.00,weatherlink.com 1.10,2015-01-29 20:37:00,
2015-01-29 10:44:00,75.5,66.2,29.93,SW,225,8.0,8.0,73,0.00,,,0.00,VWS V15.00,2015-01-29 20:44:00,
2015-01-29 10:50:00,76.2,66.5,29.93,West,272,8.0,8.0,72,0.00,,,0.00,VWS V15.00,2015-01-29 20:50:00,
2015-01-29 10:55:00,76.7,65.3,29.93,WNW,293,5.0,8.0,68,0.00,,,0.00,VWS V15.00,2015-01-29 20:55:00,
2015-01-29 11:00:00,77.3,64.6,29.93,NE,47,3.0,6.0,65,0.00,,,0.00,VWS V15.00,2015-01-29 21:00:00,
2015-01-29 11:05:00,78.0,64.8,29.93,NNW,330,5.0,5.0,64,0.00,,,0.00,VWS V15.00,2015-01-29 21:05:00,
2015-01-29 11:10:00,78.7,62.7,29.92,SSW,196,4.0,6.0,58,0.00,,,0.00,VWS V15.00,2015-01-29 21:10:00,
2015-01-29 11:15:00,78.7,62.2,29.92,North,353,3.0,8.0,57,0.00,,,0.00,VWS V15.00,2015-01-29 21:15:00,
2015-01-29 11:20:00,79.1,61.6,29.92,North,1,2.0,2.0,55,0.00,,,0.00,VWS V15.00,2015-01-29 21:20:00,
2015-01-29 11:25:00,79.3,62.3,29.92,NNE,21,0.0,1.0,56,0.00,,,0.00,VWS V15.00,2015-01-29 21:25:00,
2015-01-29 11:30:00,79.2,62.2,29.92,South,191,11.0,11.0,56,0.00,,,0.00,VWS V15.00,2015-01-29 21:30:00,
2015-01-29 11:35:00,79.2,63.2,29.92,NNW,341,4.0,5.0,58,0.00,,,0.00,VWS V15.00,2015-01-29 21:35:00,
2015-01-29 11:40:00,79.6,65.0,29.91,WNW,283,11.0,11.0,61,0.00,,,0.00,VWS V15.00,2015-01-29 21:40:00,
2015-01-29 11:45:00,79.2,63.7,29.91,WNW,300,3.0,3.0,59,0.00,,,0.00,VWS V15.00,2015-01-29 21:45:00,
2015-01-29 11:50:00,79.5,64.4,29.91,WSW,245,9.0,11.0,60,0.00,,,0.00,VWS V15.00,2015-01-29 21:50:00,
2015-01-29 11:56:00,79.0,63.5,29.91,WNW,298,8.0,9.0,59,0.00,,,0.00,VWS V15.00,2015-01-29 21:56:00,
2015-01-29 12:01:00,78.7,63.2,29.90,WSW,256,10.0,12.0,59,0.00,,,0.00,VWS V15.00,2015-01-29 22:01:00,
2015-01-29 12:06:00,79.3,64.7,29.90,WNW,292,11.0,11.0,61,0.00,,,0.00,VWS V15.00,2015-01-29 22:06:00,
2015-01-29 12:11:00,79.2,63.2,29.90,NW,313,6.0,9.0,58,0.00,,,0.00,VWS V15.00,2015-01-29 22:11:00,
2015-01-29 12:16:00,78.8,62.8,29.90,West,279,10.0,10.0,58,0.00,,,0.00,VWS V15.00,2015-01-29 22:16:00,
2015-01-29 12:21:00,78.8,65.2,29.89,WNW,286,9.0,11.0,63,0.00,,,0.00,VWS V15.00,2015-01-29 22:21:00,
2015-01-29 12:26:00,78.6,64.5,29.89,WNW,290,15.0,15.0,62,0.00,,,0.00,VWS V15.00,2015-01-29 22:26:00,
2015-01-29 12:31:00,78.2,65.9,29.88,SSW,203,2.0,6.0,66,0.00,,,0.00,VWS V15.00,2015-01-29 22:31:00,
2015-01-29 12:36:00,78.3,65.1,29.88,WNW,289,14.0,14.0,64,0.00,,,0.00,VWS V15.00,2015-01-29 22:36:00,
2015-01-29 12:41:00,78.5,65.3,29.88,SW,232,12.0,14.0,64,0.00,,,0.00,VWS V15.00,2015-01-29 22:41:00,
2015-01-29 12:47:00,78.3,65.6,29.87,WNW,302,13.0,17.0,65,0.00,,,0.00,VWS V15.00,2015-01-29 22:47:00,
2015-01-29 12:52:00,78.0,64.8,29.87,SSE,147,4.0,5.0,64,0.00,,,0.00,VWS V15.00,2015-01-29 22:52:00,
2015-01-29 12:57:00,77.7,65.4,29.87,SW,230,10.0,11.0,66,0.00,,,0.00,VWS V15.00,2015-01-29 22:57:00,
2015-01-29 13:02:00,77.2,65.0,29.87,West,271,9.0,9.0,66,0.00,,,0.00,VWS V15.00,2015-01-29 23:02:00,
2015-01-29 13:07:00,77.0,65.2,29.86,WSW,242,6.0,6.0,67,0.00,,,0.00,VWS V15.00,2015-01-29 23:07:00,
2015-01-29 13:12:00,76.7,64.9,29.87,WSW,243,6.0,8.0,67,0.00,,,0.00,VWS V15.00,2015-01-29 23:12:00,
2015-01-29 13:17:00,76.8,65.4,29.86,West,262,10.0,12.0,68,0.00,,,0.00,VWS V15.00,2015-01-29 23:17:00,
2015-01-29 13:22:00,77.3,65.1,29.86,NW,322,13.0,13.0,66,0.00,,,0.00,VWS V15.00,2015-01-29 23:22:00,
2015-01-29 13:28:00,77.0,64.3,29.86,South,182,5.0,5.0,65,0.00,,,0.00,VWS V15.00,2015-01-29 23:28:00,
2015-01-29 13:33:00,76.7,64.9,29.86,WSW,244,3.0,5.0,67,0.00,,,0.00,VWS V15.00,2015-01-29 23:33:00,
2015-01-29 13:38:00,76.3,64.6,29.86,SW,233,12.0,19.0,67,0.00,,,0.00,VWS V15.00,2015-01-29 23:38:00,
2015-01-29 13:43:00,75.8,64.9,29.85,WSW,239,9.0,9.0,69,0.00,,,0.00,VWS V15.00,2015-01-29 23:43:00,
2015-01-29 13:48:00,75.9,65.0,29.85,WSW,237,12.0,15.0,69,0.00,,,0.00,VWS V15.00,2015-01-29 23:48:00,
2015-01-29 13:53:00,75.3,64.4,29.85,WSW,242,9.0,14.0,69,0.00,,,0.00,VWS V15.00,2015-01-29 23:53:00,
2015-01-29 13:58:00,75.1,65.1,29.85,SW,225,13.0,17.0,71,0.00,,,0.00,VWS V15.00,2015-01-29 23:58:00,
2015-01-29 14:03:00,75.2,65.0,29.85,West,272,18.0,24.0,70,0.00,,,0.00,weatherlink.com 1.10,2015-01-30 00:03:00,
2015-01-29 14:09:00,75.1,64.7,29.84,West,264,12.0,12.0,70,0.00,,,0.00,VWS V15.00,2015-01-30 00:09:00,
2015-01-29 14:14:00,75.4,65.3,29.84,WSW,239,11.0,12.0,71,0.00,,,0.00,VWS V15.00,2015-01-30 00:14:00,
2015-01-29 14:19:00,75.6,64.3,29.84,West,267,12.0,15.0,68,0.00,,,0.00,VWS V15.00,2015-01-30 00:19:00,
2015-01-29 14:24:00,75.6,65.1,29.84,West,265,8.0,19.0,70,0.00,,,0.00,VWS V15.00,2015-01-30 00:24:00,
2015-01-29 14:29:00,75.5,65.0,29.84,SW,218,9.0,14.0,70,0.00,,,0.00,VWS V15.00,2015-01-30 00:29:00,
2015-01-29 14:34:00,75.4,65.3,29.84,SW,218,10.0,10.0,71,0.00,,,0.00,VWS V15.00,2015-01-30 00:34:00,
2015-01-29 14:39:00,75.4,65.8,29.84,WNW,282,11.0,16.0,72,0.00,,,0.00,VWS V15.00,2015-01-30 00:39:00,
2015-01-29 14:44:00,75.7,65.6,29.84,West,279,10.0,13.0,71,0.00,,,0.00,VWS V15.00,2015-01-30 00:44:00,
2015-01-29 14:49:00,75.7,66.0,29.84,West,279,9.0,9.0,72,0.00,,,0.00,VWS V15.00,2015-01-30 00:49:00,
2015-01-29 14:54:00,75.8,66.1,29.84,SW,227,6.0,7.0,72,0.00,,,0.00,VWS V15.00,2015-01-30 00:54:00,
2015-01-29 14:59:00,75.6,65.1,29.84,NW,310,12.0,15.0,70,0.00,,,0.00,VWS V15.00,2015-01-30 00:59:00,
2015-01-29 15:05:00,75.7,65.6,29.84,SW,222,9.0,14.0,71,0.00,,,0.00,VWS V15.00,2015-01-30 01:05:00,
2015-01-29 15:10:00,75.8,65.7,29.84,WNW,291,9.0,9.0,71,0.00,,,0.00,VWS V15.00,2015-01-30 01:10:00,
2015-01-29 15:15:00,75.9,65.4,29.83,WNW,289,7.0,14.0,70,0.00,,,0.00,VWS V15.00,2015-01-30 01:15:00,
2015-01-29 15:20:00,75.8,65.3,29.83,West,262,14.0,14.0,70,0.00,,,0.00,VWS V15.00,2015-01-30 01:20:00,
2015-01-29 15:25:00,75.7,65.6,29.83,West,261,13.0,13.0,71,0.00,,,0.00,VWS V15.00,2015-01-30 01:25:00,
2015-01-29 15:30:00,75.6,65.5,29.83,WNW,286,16.0,16.0,71,0.00,,,0.00,VWS V15.00,2015-01-30 01:30:00,
2015-01-29 15:35:00,75.7,65.2,29.83,SW,220,4.0,5.0,70,0.00,,,0.00,VWS V15.00,2015-01-30 01:35:00,
2015-01-29 15:40:00,76.2,64.9,29.83,SW,229,7.0,11.0,68,0.00,,,0.00,VWS V15.00,2015-01-30 01:40:00,
2015-01-29 15:45:00,76.3,64.6,29.82,WSW,251,10.0,11.0,67,0.00,,,0.00,VWS V15.00,2015-01-30 01:45:00,
2015-01-29 15:50:00,76.4,64.2,29.82,WNW,295,7.0,7.0,66,0.00,,,0.00,VWS V15.00,2015-01-30 01:50:00,
2015-01-29 15:56:00,76.4,63.8,29.83,SW,234,4.0,6.0,65,0.00,,,0.00,VWS V15.00,2015-01-30 01:56:00,
2015-01-29 16:01:00,76.3,63.7,29.83,WNW,291,4.0,4.0,65,0.00,,,0.00,VWS V15.00,2015-01-30 02:01:00,
2015-01-29 16:06:00,76.2,64.4,29.83,WNW,289,10.0,11.0,67,0.00,,,0.00,VWS V15.00,2015-01-30 02:06:00,
2015-01-29 16:11:00,75.8,64.1,29.83,WSW,245,19.0,19.0,67,0.00,,,0.00,VWS V15.00,2015-01-30 02:11:00,
2015-01-29 16:16:00,75.3,64.0,29.83,WNW,297,8.0,9.0,68,0.00,,,0.00,VWS V15.00,2015-01-30 02:16:00,
2015-01-29 16:21:00,75.0,63.7,29.83,WNW,289,10.0,13.0,68,0.00,,,0.00,VWS V15.00,2015-01-30 02:21:00,
2015-01-29 16:26:00,74.6,64.2,29.83,West,259,11.0,11.0,70,0.00,,,0.00,VWS V15.00,2015-01-30 02:26:00,
2015-01-29 16:31:00,74.4,64.0,29.82,WNW,284,10.0,11.0,70,0.00,,,0.00,VWS V15.00,2015-01-30 02:31:00,
2015-01-29 16:36:00,74.2,64.2,29.83,WNW,289,6.0,13.0,71,0.00,,,0.00,VWS V15.00,2015-01-30 02:36:00,
2015-01-29 16:41:00,74.1,64.1,29.82,SW,228,7.0,9.0,71,0.00,,,0.00,VWS V15.00,2015-01-30 02:41:00,
2015-01-29 16:46:00,74.0,64.0,29.82,SW,220,11.0,11.0,71,0.00,,,0.00,VWS V15.00,2015-01-30 02:46:00,
2015-01-29 16:51:00,73.9,64.3,29.82,WNW,294,5.0,7.0,72,0.00,,,0.00,VWS V15.00,2015-01-30 02:51:00,
2015-01-29 16:57:00,73.7,64.5,29.82,WNW,293,17.0,18.0,73,0.00,,,0.00,VWS V15.00,2015-01-30 02:57:00,
2015-01-29 17:02:00,73.7,64.9,29.82,NW,315,8.0,10.0,74,0.00,,,0.00,VWS V15.00,2015-01-30 03:02:00,
2015-01-29 17:07:00,73.5,64.7,29.82,SW,230,2.0,4.0,74,0.00,,,0.00,VWS V15.00,2015-01-30 03:07:00,
2015-01-29 17:12:00,73.5,63.9,29.82,NNW,328,2.0,2.0,72,0.00,,,0.00,VWS V15.00,2015-01-30 03:12:00,
2015-01-29 17:17:00,73.7,64.1,29.82,West,260,9.0,13.0,72,0.00,,,0.00,VWS V15.00,2015-01-30 03:17:00,
2015-01-29 17:22:00,73.5,63.5,29.82,West,272,6.0,7.0,71,0.00,,,0.00,VWS V15.00,2015-01-30 03:22:00,
2015-01-29 17:27:00,73.6,62.8,29.82,WNW,293,10.0,10.0,69,0.00,,,0.00,VWS V15.00,2015-01-30 03:27:00,
2015-01-29 17:32:00,73.6,62.8,29.82,SSW,208,4.0,5.0,69,0.00,,,0.00,VWS V15.00,2015-01-30 03:32:00,
2015-01-29 17:38:00,73.8,63.0,29.82,NNW,329,5.0,6.0,69,0.00,,,0.00,VWS V15.00,2015-01-30 03:38:00,
2015-01-29 17:43:00,73.9,63.1,29.82,NW,308,3.0,3.0,69,0.00,,,0.00,VWS V15.00,2015-01-30 03:43:00,
2015-01-29 17:48:00,74.0,62.8,29.82,WSW,253,6.0,7.0,68,0.00,,,0.00,VWS V15.00,2015-01-30 03:48:00,
2015-01-29 17:53:00,73.7,62.5,29.82,WNW,295,4.0,4.0,68,0.00,,,0.00,VWS V15.00,2015-01-30 03:53:00,
2015-01-29 17:58:00,73.9,62.7,29.82,East,101,2.0,2.0,68,0.00,,,0.00,VWS V15.00,2015-01-30 03:58:00,
2015-01-29 18:03:00,73.4,63.4,29.82,SW,223,9.0,12.0,71,0.00,,,0.00,VWS V15.00,2015-01-30 04:03:00,
2015-01-29 18:08:00,73.1,64.7,29.83,WSW,253,16.0,16.0,75,0.00,,,0.00,VWS V15.00,2015-01-30 04:08:00,
2015-01-29 18:13:00,73.2,63.2,29.83,WNW,291,7.0,9.0,71,0.00,,,0.00,VWS V15.00,2015-01-30 04:13:00,
2015-01-29 18:18:00,73.2,64.0,29.82,WNW,291,11.0,12.0,73,0.00,,,0.00,VWS V15.00,2015-01-30 04:18:00,
2015-01-29 18:24:00,72.6,64.6,29.82,WNW,302,4.0,8.0,76,0.00,,,0.00,VWS V15.00,2015-01-30 04:24:00,
2015-01-29 18:29:00,72.2,63.5,29.82,NW,320,10.0,11.0,74,0.00,,,0.00,VWS V15.00,2015-01-30 04:29:00,
2015-01-29 18:34:00,72.5,62.6,29.82,WSW,237,3.0,5.0,71,0.00,,,0.00,VWS V15.00,2015-01-30 04:34:00,
2015-01-29 18:39:00,72.6,62.3,29.82,West,276,8.0,8.0,70,0.00,,,0.00,VWS V15.00,2015-01-30 04:39:00,
2015-01-29 18:44:00,72.6,61.9,29.83,NW,322,6.0,6.0,69,0.00,,,0.00,VWS V15.00,2015-01-30 04:44:00,
2015-01-29 18:49:00,72.7,62.4,29.83,NNE,31,3.0,3.0,70,0.00,,,0.00,VWS V15.00,2015-01-30 04:49:00,
2015-01-29 18:54:00,72.0,61.7,29.83,SW,229,0.0,1.0,70,0.00,,,0.00,VWS V15.00,2015-01-30 04:54:00,
2015-01-29 18:59:00,72.6,61.9,29.83,NNE,14,3.0,3.0,69,0.00,,,0.00,VWS V15.00,2015-01-30 04:59:00,
2015-01-29 19:04:00,72.4,61.2,29.83,NW,310,0.0,0.0,68,0.00,,,0.00,VWS V15.00,2015-01-30 05:04:00,
2015-01-29 19:10:00,72.9,61.3,29.83,ESE,116,6.0,6.0,67,0.00,,,0.00,VWS V15.00,2015-01-30 05:10:00,
2015-01-29 19:15:00,72.8,61.6,29.84,SSW,195,4.0,5.0,68,0.00,,,0.00,VWS V15.00,2015-01-30 05:15:00,
2015-01-29 19:20:00,72.1,61.8,29.84,NNW,346,3.0,3.0,70,0.00,,,0.00,VWS V15.00,2015-01-30 05:20:00,
2015-01-29 19:25:00,70.9,61.4,29.84,NE,35,5.0,5.0,72,0.00,,,0.00,VWS V15.00,2015-01-30 05:25:00,
2015-01-29 19:30:00,71.7,61.0,29.84,NE,34,7.0,7.0,69,0.00,,,0.00,VWS V15.00,2015-01-30 05:30:00,